Location: Les Jeannots
(43.2262°N, 5.5774°E)
Time: 17:51:23
(UTC+00:00)

BREEZE M DEB (TANK) - Pass Details

Date: 05 July 2020
Orbit: 285 x 14545 km, 49.5° (Epoch: 11 August)

Event Time Altitude Azimuth Distance (km) Brightness Sun altitude
Rises 21:19:31 0° 297° (WNW) 2,565 7.4 -16.4°
Reaches altitude 10° 21:21:55 10° 298° (WNW) 1,292 5.7 -16.6°
Enters shadow 21:24:10 82° 295° (WNW) 293 1.4 -16.8°
